Theta_e
296 297 297 297 298 299 299 299 300 304 305 304 304 305 304 305 303 302 300 301 302 299 297 298 300 302 304 305 303 304 306 306 304 306 306 305 304 303 304 304 305 306 304 305 305 308 306 302 305 305 301 300 301 300
296 297 297 297 298 299 299 299 301 303 305 303 302 302 303 303 303 304 300 301 302 303 297 297 298 300 302 303 304 303 302 304 305 303 302 301 305 301 301 306 302 306 303 305 304 304 299 300 301 300 300 301 300 300
296 297 297 297 298 299 299 298 302 304 303 303 302 302 302 302 302 302 299 300 301 299 297 298 297 299 300 302 303 304 304 305 305 304 301 300 305 301 303 303 303 303 302 303 303 301 299 299 300 300 300 300 299 299
296 297 298 298 298 298 298 298 302 303 303 303 302 301 301 301 301 300 299 299 300 299 296 295 297 298 299 301 303 304 305 305 305 304 301 300 303 300 301 301 301 301 302 301 299 298 298 299 300 299 299 297 295 296
297 297 298 298 298 298 298 297 300 301 303 302 301 302 301 299 299 299 299 299 299 299 296 296 296 296 298 299 301 303 304 305 304 303 296 298 298 298 295 296 298 299 300 301 301 298 298 299 299 299 298 294 293 293
297 297 298 298 298 298 298 297 300 302 301 302 301 301 299 298 298 299 299 299 299 299 298 294 296 296 297 298 300 301 302 303 301 300 296 297 297 298 297 298 297 298 298 299 299 299 299 299 299 298 295 293 293 292
297 297 298 298 298 298 298 299 302 302 302 301 299 298 298 298 299 299 299 299 299 298 298 294 294 296 297 298 298 299 300 299 299 297 296 296 296 297 295 298 296 298 299 298 298 298 298 297 295 294 293 292 292 291
297 297 298 298 298 298 298 303 303 302 301 301 300 297 297 298 298 298 299 299 299 297 296 292 294 295 297 297 297 297 297 297 297 296 296 295 295 294 295 296 296 298 297 296 295 293 293 293 293 292 291 291 290 290
297 298 298 298 298 298 298 301 302 302 301 300 299 297 298 298 298 298 298 298 297 295 294 292 292 293 296 296 296 297 297 296 296 294 295 295 294 293 295 296 297 297 296 295 293 293 292 292 291 290 290 290 290 290
297 298 298 298 297 298 298 301 301 301 300 298 297 298 298 298 298 297 296 295 295 295 296 291 293 293 296 295 295 295 296 294 289 295 295 295 295 296 296 296 297 296 294 293 292 291 291 290 290 289 289 289 289 289
298 298 298 299 297 298 298 301 301 300 298 297 298 298 298 298 295 296 296 293 294 292 295 294 294 293 295 291 293 296 293 295 292 293 294 291 294 295 295 295 294 292 292 291 290 290 290 289 289 289 289 289 289 289
298 298 298 299 297 298 298 300 301 299 297 298 298 297 297 298 295 290 287 291 293 293 293 293 295 296 296 296 294 295 293 294 293 295 292 292 293 296 295 293 292 291 291 290 290 290 289 289 289 289 288 288 288 288
298 299 299 299 297 298 297 300 301 300 297 297 298 298 297 293 289 287 289 289 290 291 293 294 291 295 295 295 294 290 290 291 295 297 293 292 295 296 295 292 291 291 291 290 290 289 289 288 287 287 287 287 287 288
299 299 299 298 297 298 297 300 300 300 297 298 297 295 293 289 287 288 291 292 293 294 294 295 292 293 294 292 291 288 295 292 292 289 291 288 297 297 293 292 292 291 291 290 289 288 288 288 288 288 288 288 287 287
299 299 298 297 297 296 297 299 300 298 297 295 294 294 287 292 293 293 294 293 293 294 295 293 291 293 289 291 292 294 294 288 291 291 289 297 297 297 295 293 292 291 290 289 288 288 288 288 288 288 288 288 287 286
299 298 298 296 298 301 300 300 299 297 293 293 292 289 291 293 292 294 294 293 294 295 295 294 288 289 290 290 290 288 290 290 290 286 297 298 297 296 294 291 290 290 289 288 288 288 288 288 288 288 287 287 286 286
298 297 297 301 301 299 299 299 296 295 293 293 291 292 293 293 293 294 294 294 295 295 289 289 289 290 289 288 290 286 288 287 294 297 297 297 295 291 291 290 289 289 289 288 288 288 288 288 288 287 287 286 286 286
298 296 300 299 299 298 296 297 296 294 292 292 291 292 293 293 294 294 294 295 295 294 292 289 291 287 288 289 288 288 294 296 297 296 293 292 291 290 289 288 288 288 288 288 288 288 288 287 287 286 286 286 285 286
296 297 299 298 299 297 296 296 293 290 290 291 291 292 292 293 293 294 295 295 294 294 293 291 286 286 289 289 290 294 295 295 295 294 292 290 289 288 288 287 286 286 287 287 287 286 286 286 285 285 285 285 285 285
296 297 298 297 297 297 296 293 293 292 290 291 291 291 292 292 293 294 295 293 293 292 290 285 288 291 293 294 294 293 293 292 291 290 289 288 287 286 287 287 287 287 287 287 286 286 285 285 284 284 284 283 283 283
296 297 297 296 297 296 295 292 290 291 290 291 291 292 291 291 292 292 292 292 292 291 287 292 292 293 293 292 292 291 291 289 289 288 287 287 287 287 287 287 287 286 285 285 284 283 283 282 282 281 281 281 281 281
296 297 295 296 296 292 291 290 291 291 290 291 291 291 291 291 292 292 291 292 292 292 292 292 292 292 292 291 290 289 289 288 288 287 286 287 287 286 286 286 286 285 284 283 282 281 280 280 279 279 279 280 280 280
297 295 295 295 292 290 288 290 290 290 291 288 289 287 285 287 289 289 290 289 292 292 292 292 292 291 290 289 289 289 288 288 287 286 286 286 286 286 285 284 283 282 281 280 279 279 279 279 279 278 278 279 279 280
296 296 294 292 290 288 289 289 289 289 288 287 285 285 283 286 288 287 287 289 291 291 292 292 291 290 289 288 288 288 288 286 286 286 286 286 286 285 284 283 282 281 280 279 279 279 279 279 278 278 278 278 278 279
296 292 293 287 288 288 288 287 287 288 287 285 286 283 281 285 287 286 286 288 290 290 291 291 290 289 289 288 288 288 287 286 286 286 286 285 284 283 282 282 281 280 279 279 280 279 279 279 279 278 278 278 278 278
293 289 290 289 286 289 288 289 288 288 287 284 284 282 283 286 290 290 286 290 291 291 291 291 289 288 288 288 288 286 286 286 286 286 285 284 283 282 282 282 281 280 279 278 278 278 278 279 279 279 279 279 279 279
290 287 287 288 289 289 289 289 289 290 289 287 283 282 286 291 289 287 289 291 291 292 292 290 289 289 289 288 286 286 286 286 286 285 284 283 282 281 281 280 280 279 279 278 278 278 278 279 279 279 280 281 280 280
288 287 288 287 288 290 290 289 290 290 288 286 287 289 291 291 289 289 290 291 292 291 289 288 288 288 287 286 286 286 286 286 286 284 283 283 282 281 280 279 278 278 277 277 278 278 279 279 280 280 280 281 281 281
287 288 289 285 285 284 284 287 287 286 287 288 288 285 284 287 287 289 290 291 290 289 289 288 288 286 286 286 286 286 286 286 284 283 283 283 281 281 280 280 279 278 278 279 279 279 279 279 280 280 281 281 281 281
287 288 285 283 286 284 280 283 284 286 286 286 287 287 286 286 287 289 290 289 289 289 289 287 286 286 286 286 286 286 286 285 284 284 283 283 282 282 281 280 280 279 279 279 280 280 280 280 280 280 280 280 280 280
287 286 283 282 281 281 283 284 285 287 288 287 288 288 286 286 286 287 287 288 288 288 287 286 286 286 286 286 286 286 285 284 284 283 283 283 282 282 281 281 280 280 280 280 280 280 280 279 279 279 279 279 279 280
286 285 285 283 282 282 283 285 286 287 287 288 286 286 287 288 286 287 288 288 288 287 286 286 286 286 286 286 286 285 284 284 284 283 283 282 282 282 281 280 280 280 280 279 279 279 279 279 279 279 279 279 279 279
287 286 286 285 284 285 285 287 286 285 285 285 285 285 286 287 287 288 288 288 287 287 287 286 286 286 286 286 285 284 284 284 283 283 283 282 282 281 280 280 280 280 280 279 280 279 279 279 279 279 279 279 279 279
Wind_Speed
29 27 29 31 30 30 31 31 27 14 13 10 9 22 36 23 15 12 3 6 4 8 11 5 4 4 6 5 4 6 4 2 3 3 2 2 2 3 2 3 4 5 4 3 2 1 6 3 1 4 3 5 7 3
24 26 28 29 29 28 28 27 15 11 0 5 8 17 25 21 16 11 1 6 11 8 10 15 15 11 8 6 8 6 2 3 3 4 1 3 2 1 3 2 1 2 5 3 6 4 1 3 0 4 4 5 2 3
22 23 25 26 26 25 25 24 16 4 1 3 2 14 16 19 16 14 4 7 14 18 11 7 9 9 7 6 7 3 3 4 3 4 5 2 2 2 3 4 2 2 2 2 1 1 1 3 4 4 3 2 3 7
20 21 23 24 24 21 19 16 9 5 4 4 4 16 12 11 16 15 8 4 7 8 5 5 4 6 6 4 2 3 5 8 9 5 4 2 2 2 3 2 2 3 3 3 2 1 2 6 4 2 1 4 6 7
19 19 22 21 21 19 15 11 5 3 7 6 11 15 9 10 13 14 9 4 5 1 5 5 8 7 6 5 5 7 10 10 5 3 3 1 2 2 2 1 2 1 3 4 4 4 2 2 8 4 3 7 7 8
19 18 21 19 18 17 13 9 9 6 8 3 15 13 12 15 16 12 3 4 2 8 7 2 3 4 6 6 6 7 7 5 4 4 3 3 2 1 2 2 2 2 2 4 2 9 2 3 4 5 6 7 8 11
19 18 18 17 16 15 10 10 11 16 11 10 14 15 21 17 20 3 3 7 11 4 4 3 2 2 5 5 6 7 6 5 3 4 3 2 2 2 2 3 3 5 5 5 4 3 2 4 2 5 8 9 12 13
18 18 17 16 14 10 4 2 13 17 12 14 16 17 16 15 15 5 4 16 11 2 3 3 1 2 3 3 3 3 3 3 5 3 2 1 2 1 3 4 7 8 5 3 1 2 2 3 4 6 9 13 15 17
17 17 15 14 12 9 9 10 18 11 15 15 14 17 12 8 4 4 13 13 7 1 6 3 4 3 6 3 3 2 2 3 2 2 1 1 0 3 3 7 12 11 5 4 4 4 4 5 8 11 14 16 18 18
19 17 16 14 12 12 13 14 19 16 18 18 25 6 6 6 11 14 6 6 3 1 3 3 5 2 6 3 2 2 2 1 1 1 0 1 3 4 3 6 12 9 7 5 5 5 7 11 12 14 16 17 17 19
21 19 19 17 15 17 17 19 23 20 23 27 7 4 9 15 10 4 3 3 3 2 2 5 5 5 5 3 3 2 2 1 2 2 2 2 3 4 9 10 9 8 6 5 7 9 11 13 15 17 19 19 19 20
21 21 22 20 20 22 22 25 29 29 27 10 7 12 14 6 3 3 2 1 2 4 6 8 7 5 6 4 4 1 3 1 2 2 1 2 3 7 14 11 9 7 7 8 10 12 12 13 15 18 21 22 21 22
22 23 23 23 24 26 27 26 35 25 21 14 5 7 5 2 3 5 6 3 2 8 11 10 4 5 5 4 5 3 4 2 4 2 3 4 3 11 14 12 10 9 10 12 14 13 13 13 14 17 20 22 24 25
22 20 21 25 26 30 33 32 40 34 20 7 8 3 5 2 5 5 4 4 6 9 25 20 8 4 4 3 3 5 2 3 2 1 5 3 10 13 14 12 11 11 13 16 15 13 12 13 16 19 22 26 29 28
21 22 23 25 28 31 33 40 43 38 9 5 5 5 5 3 1 4 9 10 8 29 27 12 6 5 2 4 1 3 2 2 4 4 3 3 6 12 13 11 12 15 17 18 15 14 15 17 20 25 27 29 30 28
19 21 25 24 27 33 47 54 44 25 6 6 5 4 4 3 3 8 9 9 26 32 11 4 3 4 2 4 3 4 6 6 3 3 4 5 9 9 8 10 14 17 19 20 19 19 21 23 25 29 31 31 26 25
25 19 20 34 50 57 53 46 18 7 6 4 2 4 9 2 7 7 11 17 30 14 3 4 4 3 3 3 1 3 5 3 6 7 7 6 5 6 9 13 16 18 20 21 23 25 28 28 31 34 36 30 24 26
27 24 31 47 53 46 34 19 10 6 5 2 2 5 6 4 12 13 13 31 13 4 7 4 10 3 5 5 3 4 6 8 10 10 8 4 5 7 10 14 17 19 21 22 23 26 28 31 33 33 29 25 27 30
34 34 40 45 44 28 7 11 5 5 2 2 6 7 4 8 13 14 26 25 6 4 12 5 5 3 3 5 4 14 15 12 10 7 5 4 6 8 13 16 18 19 20 23 25 27 27 26 26 25 25 26 29 28
33 40 39 33 38 8 6 5 8 3 5 5 7 7 8 9 15 22 20 12 11 4 1 2 3 5 7 12 14 15 14 10 6 4 2 3 9 12 13 15 19 24 27 27 27 25 24 24 23 24 25 24 22 24
36 31 28 36 23 7 5 8 6 4 9 5 15 6 6 13 12 9 8 9 4 2 2 4 13 17 17 16 14 12 10 7 1 3 7 9 11 14 17 20 24 25 27 27 26 25 24 24 25 23 23 24 23 22
31 39 35 34 6 5 4 7 7 12 6 10 9 5 7 4 6 6 7 4 3 3 7 18 22 19 17 15 14 11 7 2 2 5 7 11 15 19 22 23 24 25 24 21 21 23 24 26 26 26 25 25 24 24
48 41 31 8 6 3 6 18 5 8 4 6 6 4 2 3 7 8 2 2 4 10 20 23 20 17 16 16 13 7 2 1 3 6 9 13 17 20 19 20 19 19 20 20 20 23 24 24 24 24 24 23 23 21
37 16 7 7 5 5 10 4 5 6 7 2 2 4 2 4 9 1 2 4 10 21 25 23 20 21 19 14 8 3 2 3 5 8 13 16 19 18 18 17 17 18 18 20 21 20 22 25 24 24 22 21 16 15
10 8 9 4 5 6 4 5 3 3 3 3 4 1 3 5 2 1 3 9 21 24 26 23 20 18 17 13 7 3 4 5 9 13 16 17 17 17 16 17 16 16 18 18 19 22 24 25 23 21 19 16 16 18
4 6 8 6 6 5 6 6 6 6 5 4 2 5 4 2 3 5 3 20 28 32 31 27 26 23 15 8 5 4 4 8 12 16 15 15 16 17 18 19 18 14 15 18 20 22 25 23 21 19 17 14 13 16
5 5 6 5 11 12 7 6 6 3 5 6 5 5 3 5 5 4 10 21 24 29 23 20 19 14 9 6 5 3 6 10 14 13 12 13 14 15 15 16 16 16 17 17 19 22 22 22 20 18 18 15 14 16
4 10 9 13 7 4 7 4 4 4 4 8 9 5 9 8 5 10 10 20 25 28 27 24 17 10 8 5 2 4 9 13 12 9 10 11 12 12 13 13 14 15 17 17 19 20 18 18 18 18 17 16 15 14
4 13 15 5 7 8 4 3 4 4 8 11 4 3 3 4 12 16 26 26 28 27 25 19 15 11 7 3 2 7 11 11 8 8 8 8 8 10 12 12 12 13 14 13 13 15 15 15 16 16 15 15 15 15
4 7 7 5 5 4 1 4 6 13 10 10 9 9 8 11 16 27 30 30 27 21 14 13 11 8 5 2 5 9 10 6 7 8 9 10 11 12 12 12 12 12 13 13 13 12 12 11 11 11 11 12 12 12
10 6 8 8 4 5 16 20 19 16 11 10 13 14 13 11 20 29 30 26 21 16 16 14 11 7 4 2 6 9 6 5 6 7 8 8 9 10 11 12 12 13 13 13 13 13 13 13 13 12 12 12 12 12
5 5 5 5 3 8 5 4 6 6 5 6 5 7 11 8 10 23 29 23 18 19 16 12 9 6 2 4 7 5 5 5 5 6 7 7 7 7 9 9 10 11 12 13 14 14 14 13 13 13 12 12 11 11
11 17 19 10 5 3 5 6 5 4 6 4 4 4 6 6 7 16 26 22 19 16 13 11 9 6 3 5 6 4 4 5 5 5 5 5 6 7 7 7 8 10 11 12 13 14 14 14 13 13 13 13 13 12
Wind_Direction
321 324 328 330 335 338 344 344 354 26 118 105 163 169 170 178 166 168 329 27 71 98 60 80 104 111 121 127 136 162 104 348 52 73 115 178 130 209 106 165 176 163 154 196 144 231 281 1 46 168 173 136 149 151
323 328 329 331 335 339 342 345 359 42 126 68 153 161 185 197 193 192 6 78 105 103 113 93 87 92 111 117 131 145 123 128 149 97 102 121 135 113 144 218 27 203 181 185 180 223 339 330 282 133 150 146 154 323
324 328 329 330 333 338 342 346 356 106 320 12 162 163 158 185 208 210 158 119 104 102 84 100 68 90 105 130 148 138 154 153 149 115 143 134 117 123 158 237 189 264 159 182 94 64 100 120 112 121 96 53 336 320
319 323 324 326 328 333 337 342 42 157 313 349 173 159 182 189 190 193 175 162 119 118 98 42 76 84 76 99 116 172 164 148 135 108 87 108 130 194 194 178 183 200 135 172 282 253 189 235 216 193 250 322 313 309
314 316 319 321 324 326 324 328 76 152 273 332 169 160 179 174 176 191 180 169 132 35 124 135 94 69 81 77 111 120 138 140 120 78 59 106 104 103 13 65 267 216 191 169 230 209 170 224 194 224 281 315 314 312
305 309 313 312 314 313 311 302 238 192 198 182 160 172 168 155 151 141 176 210 143 117 112 98 106 85 111 107 118 129 131 108 87 85 91 92 100 109 113 205 266 224 190 213 225 161 183 163 218 229 294 310 313 309
296 301 305 304 305 305 297 293 209 188 207 173 159 159 160 158 158 139 191 183 170 124 106 102 29 122 126 115 94 82 87 81 80 96 73 130 146 127 139 208 189 159 131 123 146 179 178 197 235 257 286 299 305 313
287 292 292 294 290 288 266 198 181 188 193 169 170 163 165 166 183 258 273 164 158 151 100 107 59 91 130 85 79 61 74 77 51 90 99 115 149 63 234 222 174 169 165 175 196 252 243 238 268 286 301 309 311 314
280 280 280 284 270 246 218 167 180 190 183 161 162 150 146 165 204 167 149 149 169 213 122 106 138 189 149 97 95 86 65 64 55 85 73 118 237 238 213 180 184 186 191 241 250 264 260 283 302 311 312 311 308 308
275 269 262 268 245 223 211 187 188 179 162 148 137 150 172 182 150 137 139 167 187 154 102 92 128 120 151 133 100 107 49 108 81 331 71 202 257 253 232 211 197 195 209 225 257 268 271 297 312 313 312 310 307 309
271 263 247 255 228 209 205 185 189 176 156 155 176 166 157 154 158 192 154 151 152 41 121 123 147 139 159 122 149 150 154 93 83 260 138 287 276 215 181 173 187 197 214 248 279 295 302 302 304 309 312 313 311 306
268 260 246 242 218 202 197 184 190 174 167 163 145 126 137 182 190 111 220 6 179 199 154 138 144 128 133 134 108 136 108 63 211 161 86 270 254 194 190 193 204 220 246 278 293 298 296 298 306 309 313 316 318 308
263 261 246 225 208 199 193 186 192 179 172 158 165 163 162 150 38 160 200 270 178 178 167 150 132 142 129 117 88 86 82 167 139 183 239 230 250 192 198 204 222 250 276 293 297 294 295 307 318 324 327 329 321 312
260 248 226 210 206 198 190 186 190 184 182 207 177 175 180 206 243 193 187 166 152 159 150 140 122 141 127 79 131 88 121 89 83 325 237 250 219 204 206 223 248 271 288 295 294 290 303 315 321 324 324 324 320 315
244 232 216 212 208 207 199 189 190 179 224 232 187 212 199 179 148 155 140 133 137 154 144 121 106 118 59 98 91 110 112 229 205 228 230 238 199 204 218 241 270 289 298 295 285 288 298 305 311 315 318 321 319 315
225 210 213 215 212 201 183 181 178 173 242 229 202 109 140 130 183 166 165 156 153 155 155 138 115 77 77 130 103 196 130 211 234 215 200 188 196 209 242 278 293 300 302 297 286 287 291 294 304 313 314 315 313 313
199 197 185 166 168 165 165 164 154 196 244 223 191 191 183 173 169 155 161 163 162 164 165 128 84 173 107 62 116 194 197 214 173 163 154 164 194 264 286 295 301 303 302 299 293 286 287 293 297 304 309 312 308 310
190 187 162 164 164 163 145 158 171 199 223 196 185 170 189 154 151 152 156 162 163 216 159 174 128 114 153 148 237 219 188 148 151 162 172 214 272 291 301 305 308 308 307 304 301 297 296 297 300 305 308 310 311 315
190 176 154 171 176 154 126 168 155 176 134 128 138 148 127 140 151 154 158 167 199 196 148 144 84 144 197 200 158 152 160 158 168 183 213 262 289 305 310 310 309 310 311 311 310 308 307 307 307 310 311 311 313 317
186 178 167 168 170 140 121 133 169 176 164 164 147 141 127 140 145 153 160 161 152 184 97 79 164 156 132 140 149 150 153 160 176 191 225 274 309 315 316 315 316 317 316 316 317 319 320 317 315 313 315 318 316 314
177 179 185 181 163 124 131 151 152 139 140 144 138 127 104 137 140 149 152 173 203 184 139 130 128 123 128 134 141 147 146 145 148 310 309 319 323 322 319 317 318 320 320 324 325 326 327 328 328 328 324 320 318 312
175 177 160 169 154 127 128 160 147 138 149 150 134 116 124 129 139 156 165 183 158 146 132 144 140 141 144 148 147 142 139 128 329 315 320 320 320 316 317 323 323 322 325 329 330 331 330 329 327 325 323 321 320 319
161 159 161 142 123 129 127 139 148 156 140 176 132 99 77 164 171 160 158 162 162 147 147 151 149 150 155 153 151 150 146 339 331 326 322 320 315 314 320 326 327 327 329 332 332 332 335 337 333 332 329 327 324 323
163 153 150 135 134 125 150 150 150 120 114 124 107 117 207 153 149 114 183 185 159 155 159 162 164 159 161 163 168 190 276 314 325 330 322 322 318 324 330 336 335 331 329 332 336 338 340 342 343 341 341 340 346 347
139 168 149 118 154 125 125 147 137 106 121 161 124 140 218 153 113 168 198 179 166 165 167 169 172 177 173 176 188 234 280 309 328 331 326 324 327 332 334 336 342 338 336 338 339 341 343 344 345 347 352 355 357 353
113 170 168 162 155 139 161 148 160 157 128 129 109 126 142 132 127 212 216 179 177 176 176 178 176 180 183 196 219 243 295 323 329 330 329 327 329 333 336 341 346 351 344 339 336 339 341 343 347 350 353 352 346 340
133 177 164 124 132 131 100 83 118 145 141 158 165 161 146 147 201 237 160 167 180 181 175 172 177 181 193 199 208 270 318 326 330 331 331 331 332 336 338 341 345 344 339 339 339 336 335 340 343 343 344 346 342 336
135 165 142 154 122 108 114 104 152 157 164 150 140 154 155 165 176 163 161 161 161 161 163 168 175 186 185 189 240 316 324 330 332 336 339 335 334 336 337 334 331 332 332 330 330 333 334 335 337 341 342 341 339 336
118 132 122 88 92 69 69 129 160 160 143 161 123 138 143 110 137 148 148 155 159 162 163 168 174 178 182 195 292 319 329 330 337 334 340 349 357 344 337 328 323 324 327 330 333 331 334 339 340 340 341 341 342 343
107 133 95 64 76 91 58 122 141 130 126 124 112 110 101 116 138 147 150 155 157 159 165 166 168 168 183 246 322 328 327 329 345 346 351 358 1 355 351 349 349 348 343 341 346 353 349 345 342 340 340 343 344 344
123 106 79 57 79 79 121 120 108 96 86 79 102 119 114 124 148 152 154 156 161 171 174 173 172 178 203 311 329 327 324 344 349 353 359 2 360 358 3 5 6 4 3 1 360 1 359 359 0 1 360 358 355 353
67 87 119 104 108 152 144 96 74 80 88 104 90 113 116 115 152 170 172 170 173 175 176 177 182 184 222 319 328 323 335 341 347 355 360 359 355 14 20 16 16 19 20 17 17 16 14 12 9 7 5 3 0 358
81 86 95 107 113 88 73 93 66 78 55 67 74 101 111 129 156 178 184 185 187 183 178 180 190 203 255 311 323 327 332 333 340 345 349 348 6 20 13 9 15 20 20 21 20 23 22 20 18 18 17 18 17 13